FENGYUN 1C DEB, 37421

Orbit data source: Space-Track

FENGYUN 1C DEB, 37421 is space debris in SSO originally from a launch on Mon, 10 May 1999 UTC launched from the Taiyaun Space Center, China (TSC). Fengyun 1C debris stems from the Chinese weather satellite Fengyun-1C, which was intentionally destroyed by a Chinese anti-satellite missile in 2007. This event dramatically increased the amount of space debris, with thousands of trackable fragments posing hazards to satellites and human spaceflight. The Fengyun 1C debris cloud has become a focal point in discussions about space sustainability and the need for international regulations to prevent the creation of new debris.

Loading next visibility...
Identifier
37421, 1999-025EGP
Orbit
SSO
Country
Flag of CNCN / PRC
Related business
Manufacturer
Unknown
Mission
Spacecraft
Bus & Motor
Unknown
Mass
Unknown
Launch date (UTC)
1999-05-10 (27 years ago)
Launch vehicle
Unknown
Launch site
Taiyaun Space Center, China (TSC)
Object type
Payload
Rocket body
Debris
Shape & HBR
Unknown shape, 0.1 m
Radar Cross Section
Small (<0.1 m²)

Expand to show TLE details & history
Last TLE update: 1 day ago

TLE from 1 day ago
0 FENGYUN 1C DEB
1 37421U 99025EGP 26143.79908213  .00000326  00000-0  40122-3 0  9990
2 37421  98.9076  84.4332 0409747  38.5348 324.4295 13.40691341631173
Epoch: 2026-05-23T19:10Z
TLE epoch observation values (Epoch: 2026-05-23T19:10:40.696Z)
Latitude
0.00006°
Longitude
-84.64677°
Altitude
864.472 km
Speed
7.541 km/s
True Right ascension
05h 37m 43s
True Declination
0° 00' 00"
Sunlit
Object was in daylight at epoch
Visualization orbit readout
Latitude
Unknown
Longitude
Unknown
Altitude
Unknown
Speed
Unknown
Apparent Right ascension
Unknown
Apparent Declination
Unknown
Sunlit
N/A
Visualization observer readout
Local Sidereal Time
15:49:53
Azimuth
Unknown
Elevation
Unknown
Doppler factor
Unknown
Orbital elements
Apogee altitude
1,410.55 km
Perigee altitude
797.396 km
Semi-major axis
7,482.11 km
Eccentricity
0.04097
Inclination
98.9076°
RAAN
84.4332°
Arg. of periapsis
38.5348°
True anomaly
321.58085°
Mean anomaly
324.4295°
Eccentric anomaly
323.0172°
Mean motion
3.35357 °/min
Orbital period
107.35 mins
BSTAR
0.00040122
Loading maneuver chart data...
Computing Atmospheric mass density...

Documentation

Showing up to 5 results
|